Time,TemperatureF,DewpointF,PressureIn,WindDirection,WindDirectionDegrees,WindSpeedMPH,WindSpeedGustMPH,Humidity,HourlyPrecipIn,Conditions,Clouds,dailyrainin,SoftwareType,DateUTC
2013-02-16 00:02:00,35.0,16.0,30.19,WNW,289,1.0,8.0,46,0.00,,,0.00,,2013-02-16 00:02:00,
2013-02-16 00:11:00,35.0,16.0,30.19,WNW,289,1.0,8.0,46,0.00,,,0.00,,2013-02-16 00:11:00,
2013-02-16 00:21:00,34.0,16.0,30.20,WNW,302,1.0,8.0,47,0.00,,,0.00,,2013-02-16 00:21:00,
2013-02-16 00:32:00,33.0,15.0,30.20,WNW,286,1.0,7.0,48,0.00,,,0.00,,2013-02-16 00:32:00,
2013-02-16 00:41:00,33.0,15.0,30.20,WNW,286,1.0,7.0,48,0.00,,,0.00,,2013-02-16 00:41:00,
2013-02-16 00:51:00,33.0,15.0,30.20,WNW,292,0.0,5.0,48,0.00,,,0.00,,2013-02-16 00:51:00,
2013-02-16 01:02:00,33.0,16.0,30.20,WNW,303,0.0,5.0,49,0.00,,,0.00,,2013-02-16 01:02:00,
2013-02-16 01:11:00,33.0,16.0,30.20,WNW,303,0.0,5.0,49,0.00,,,0.00,,2013-02-16 01:11:00,
2013-02-16 01:21:00,32.0,15.0,30.20,NW,305,0.0,4.0,50,0.00,,,0.00,,2013-02-16 01:21:00,
2013-02-16 01:32:00,32.0,16.0,30.20,NW,305,0.0,6.0,51,0.00,,,0.00,,2013-02-16 01:32:00,
2013-02-16 01:41:00,32.0,16.0,30.20,NW,305,0.0,6.0,51,0.00,,,0.00,,2013-02-16 01:41:00,
2013-02-16 01:51:00,31.0,15.0,30.20,NW,305,0.0,2.0,51,0.00,,,0.00,,2013-02-16 01:51:00,
2013-02-16 02:01:00,31.0,15.0,30.19,NW,305,0.0,3.0,52,0.00,,,0.00,,2013-02-16 02:01:00,
2013-02-16 02:11:00,31.0,15.0,30.19,NW,305,0.0,3.0,52,0.00,,,0.00,,2013-02-16 02:11:00,
2013-02-16 02:21:00,31.0,15.0,30.19,NW,305,0.0,0.0,52,0.00,,,0.00,,2013-02-16 02:21:00,
2013-02-16 02:32:00,30.0,15.0,30.19,NW,305,0.0,0.0,53,0.00,,,0.00,,2013-02-16 02:32:00,
2013-02-16 02:42:00,30.0,15.0,30.19,NW,305,0.0,0.0,53,0.00,,,0.00,,2013-02-16 02:42:00,
2013-02-16 02:52:00,30.0,15.0,30.19,NW,305,0.0,0.0,54,0.00,,,0.00,,2013-02-16 02:52:00,
2013-02-16 03:01:00,30.0,16.0,30.19,NW,305,0.0,0.0,56,0.00,,,0.00,,2013-02-16 03:01:00,
2013-02-16 03:11:00,30.0,16.0,30.19,NW,305,0.0,0.0,56,0.00,,,0.00,,2013-02-16 03:11:00,
2013-02-16 03:21:00,30.0,17.0,30.19,NW,305,0.0,1.0,57,0.00,,,0.00,,2013-02-16 03:21:00,
2013-02-16 03:32:00,30.0,17.0,30.20,NW,305,0.0,4.0,58,0.00,,,0.00,,2013-02-16 03:32:00,
2013-02-16 03:41:00,30.0,17.0,30.20,NW,305,0.0,4.0,58,0.00,,,0.00,,2013-02-16 03:41:00,
2013-02-16 03:52:00,30.0,17.0,30.19,NW,305,0.0,2.0,59,0.00,,,0.00,,2013-02-16 03:52:00,
2013-02-16 04:01:00,31.0,17.0,30.19,WNW,292,4.0,10.0,56,0.00,,,0.00,,2013-02-16 04:01:00,
2013-02-16 04:11:00,31.0,17.0,30.19,WNW,292,4.0,10.0,56,0.00,,,0.00,,2013-02-16 04:11:00,
2013-02-16 04:21:00,31.0,17.0,30.20,WNW,286,3.0,10.0,56,0.00,,,0.00,,2013-02-16 04:21:00,
2013-02-16 04:32:00,32.0,17.0,30.19,NNW,327,6.0,14.0,54,0.00,,,0.00,,2013-02-16 04:32:00,
2013-02-16 04:41:00,32.0,17.0,30.19,NNW,327,6.0,14.0,54,0.00,,,0.00,,2013-02-16 04:41:00,
2013-02-16 04:51:00,31.0,17.0,30.19,NNW,346,3.0,12.0,56,0.00,,,0.00,,2013-02-16 04:51:00,
2013-02-16 05:01:00,30.0,17.0,30.19,NNW,336,4.0,10.0,59,0.00,,,0.00,,2013-02-16 05:01:00,
2013-02-16 05:12:00,30.0,17.0,30.19,NNW,336,4.0,10.0,59,0.00,,,0.00,,2013-02-16 05:12:00,
2013-02-16 05:22:00,30.0,18.0,30.19,North,350,2.0,9.0,61,0.00,,,0.00,,2013-02-16 05:22:00,
2013-02-16 05:32:00,29.0,18.0,30.19,NNW,339,1.0,9.0,63,0.00,,,0.00,,2013-02-16 05:32:00,
2013-02-16 05:42:00,29.0,18.0,30.19,NNW,339,1.0,9.0,63,0.00,,,0.00,,2013-02-16 05:42:00,
2013-02-16 05:52:00,29.0,18.0,30.19,NNW,344,5.0,10.0,62,0.00,,,0.00,,2013-02-16 05:52:00,
2013-02-16 06:02:00,28.0,17.0,30.19,North,355,1.0,10.0,64,0.00,,,0.00,,2013-02-16 06:02:00,
2013-02-16 06:11:00,28.0,17.0,30.19,North,355,1.0,10.0,64,0.00,,,0.00,,2013-02-16 06:11:00,
2013-02-16 06:21:00,27.0,17.0,30.19,NNW,342,8.0,13.0,65,0.00,,,0.00,,2013-02-16 06:21:00,
2013-02-16 06:32:00,27.0,17.0,30.19,NNW,346,3.0,12.0,65,0.00,,,0.00,,2013-02-16 06:32:00,
2013-02-16 06:42:00,27.0,17.0,30.19,NNW,346,3.0,12.0,65,0.00,,,0.00,,2013-02-16 06:42:00,
2013-02-16 06:51:00,27.0,17.0,30.19,North,355,4.0,10.0,65,0.00,,,0.00,,2013-02-16 06:51:00,
2013-02-16 07:02:00,26.0,16.0,30.19,NNW,340,5.0,12.0,65,0.00,,,0.00,,2013-02-16 07:02:00,
2013-02-16 07:11:00,26.0,16.0,30.19,NNW,340,5.0,12.0,65,0.00,,,0.00,,2013-02-16 07:11:00,
2013-02-16 07:21:00,26.0,16.0,30.19,NNW,329,6.0,11.0,66,0.00,,,0.00,,2013-02-16 07:21:00,
2013-02-16 07:31:00,25.0,16.0,30.19,NNW,345,3.0,12.0,67,0.00,,,0.00,,2013-02-16 07:31:00,
2013-02-16 07:42:00,25.0,16.0,30.19,NNW,345,3.0,12.0,67,0.00,,,0.00,,2013-02-16 07:42:00,
2013-02-16 07:52:00,25.0,16.0,30.19,NNW,346,3.0,9.0,68,0.00,,,0.00,,2013-02-16 07:52:00,
2013-02-16 08:01:00,25.0,16.0,30.19,WNW,300,3.0,9.0,68,0.00,,,0.00,,2013-02-16 08:01:00,
2013-02-16 08:11:00,25.0,16.0,30.19,WNW,300,3.0,9.0,68,0.00,,,0.00,,2013-02-16 08:11:00,
2013-02-16 08:21:00,25.0,16.0,30.20,NNW,348,4.0,12.0,68,0.00,,,0.00,,2013-02-16 08:21:00,
2013-02-16 08:31:00,24.0,15.0,30.20,NW,325,3.0,8.0,68,0.00,,,0.00,,2013-02-16 08:31:00,
2013-02-16 08:41:00,24.0,15.0,30.20,NW,325,3.0,8.0,68,0.00,,,0.00,,2013-02-16 08:41:00,
2013-02-16 08:52:00,24.0,15.0,30.20,NNW,338,5.0,13.0,67,0.00,,,0.00,,2013-02-16 08:52:00,
2013-02-16 09:01:00,24.0,15.0,30.20,NNW,339,2.0,6.0,68,0.00,,,0.00,,2013-02-16 09:01:00,
2013-02-16 09:11:00,24.0,15.0,30.20,NNW,339,2.0,6.0,68,0.00,,,0.00,,2013-02-16 09:11:00,
2013-02-16 09:21:00,24.0,15.0,30.20,NW,315,2.0,8.0,69,0.00,,,0.00,,2013-02-16 09:21:00,
2013-02-16 09:31:00,23.0,14.0,30.19,NW,314,5.0,9.0,69,0.00,,,0.00,,2013-02-16 09:31:00,
2013-02-16 09:42:00,23.0,14.0,30.19,NW,314,5.0,9.0,69,0.00,,,0.00,,2013-02-16 09:42:00,
2013-02-16 09:51:00,23.0,14.0,30.19,North,351,4.0,12.0,68,0.00,,,0.00,,2013-02-16 09:51:00,
2013-02-16 10:01:00,23.0,14.0,30.19,NW,313,6.0,12.0,68,0.00,,,0.00,,2013-02-16 10:01:00,
2013-02-16 10:11:00,23.0,14.0,30.19,NW,313,6.0,12.0,68,0.00,,,0.00,,2013-02-16 10:11:00,
2013-02-16 10:21:00,23.0,14.0,30.19,NW,321,6.0,12.0,68,0.00,,,0.00,,2013-02-16 10:21:00,
2013-02-16 10:31:00,23.0,14.0,30.19,NW,321,0.0,4.0,69,0.00,,,0.00,,2013-02-16 10:31:00,
2013-02-16 10:41:00,23.0,14.0,30.19,NW,321,0.0,4.0,69,0.00,,,0.00,,2013-02-16 10:41:00,
2013-02-16 10:51:00,22.0,14.0,30.19,NW,309,0.0,5.0,71,0.00,,,0.00,,2013-02-16 10:51:00,
2013-02-16 11:02:00,22.0,15.0,30.20,WNW,296,1.0,8.0,73,0.00,,,0.00,,2013-02-16 11:02:00,
2013-02-16 11:11:00,22.0,15.0,30.20,WNW,296,1.0,8.0,73,0.00,,,0.00,,2013-02-16 11:11:00,
2013-02-16 11:22:00,22.0,15.0,30.20,WNW,289,0.0,6.0,74,0.00,,,0.00,,2013-02-16 11:22:00,
2013-02-16 11:32:00,21.0,14.0,30.20,NW,306,2.0,6.0,74,0.00,,,0.00,,2013-02-16 11:32:00,
2013-02-16 11:42:00,21.0,14.0,30.20,NW,306,2.0,6.0,74,0.00,,,0.00,,2013-02-16 11:42:00,
2013-02-16 11:52:00,21.0,14.0,30.20,NW,323,3.0,12.0,74,0.00,,,0.00,,2013-02-16 11:52:00,
2013-02-16 12:01:00,21.0,14.0,30.20,NNW,333,0.0,7.0,75,0.00,,,0.00,,2013-02-16 12:01:00,
2013-02-16 12:12:00,21.0,14.0,30.20,NNW,333,0.0,7.0,75,0.00,,,0.00,,2013-02-16 12:12:00,
2013-02-16 12:22:00,21.0,15.0,30.20,NW,305,1.0,5.0,76,0.00,,,0.00,,2013-02-16 12:22:00,
2013-02-16 12:32:00,21.0,15.0,30.20,NNW,333,0.0,8.0,76,0.00,,,0.00,,2013-02-16 12:32:00,
2013-02-16 12:42:00,21.0,15.0,30.20,NNW,333,0.0,8.0,76,0.00,,,0.00,,2013-02-16 12:42:00,
2013-02-16 12:52:00,21.0,15.0,30.20,NW,321,0.0,4.0,77,0.00,,,0.00,,2013-02-16 12:52:00,
2013-02-16 13:02:00,20.0,14.0,30.21,NW,321,1.0,6.0,77,0.00,,,0.00,,2013-02-16 13:02:00,
2013-02-16 13:11:00,20.0,14.0,30.21,NW,324,1.0,6.0,77,0.00,,,0.00,,2013-02-16 13:11:00,
2013-02-16 13:21:00,20.0,14.0,30.21,NW,324,1.0,6.0,77,0.00,,,0.00,,2013-02-16 13:21:00,
2013-02-16 13:31:00,20.0,14.0,30.22,NNW,344,4.0,8.0,78,0.00,,,0.00,,2013-02-16 13:31:00,
2013-02-16 13:41:00,20.0,14.0,30.22,NNW,344,4.0,8.0,78,0.00,,,0.00,,2013-02-16 13:41:00,
2013-02-16 13:51:00,21.0,15.0,30.22,NNW,341,0.0,6.0,78,0.00,,,0.00,,2013-02-16 13:51:00,
2013-02-16 14:01:00,23.0,17.0,30.22,NNW,338,3.0,7.0,76,0.00,,,0.00,,2013-02-16 14:01:00,
2013-02-16 14:11:00,23.0,17.0,30.22,NNW,338,3.0,7.0,76,0.00,,,0.00,,2013-02-16 14:11:00,
2013-02-16 14:21:00,24.0,17.0,30.22,NW,309,2.0,5.0,74,0.00,,,0.00,,2013-02-16 14:21:00,
2013-02-16 14:32:00,26.0,17.0,30.23,NNW,340,3.0,10.0,68,0.00,,,0.00,,2013-02-16 14:32:00,
2013-02-16 14:41:00,26.0,17.0,30.23,NNW,340,3.0,10.0,68,0.00,,,0.00,,2013-02-16 14:41:00,
2013-02-16 14:52:00,27.0,18.0,30.23,NNW,337,6.0,9.0,67,0.00,,,0.00,,2013-02-16 14:52:00,
2013-02-16 15:01:00,28.0,17.0,30.23,NNW,340,4.0,9.0,64,0.00,,,0.00,,2013-02-16 15:01:00,
2013-02-16 15:11:00,28.0,17.0,30.23,NNW,340,4.0,9.0,64,0.00,,,0.00,,2013-02-16 15:11:00,
2013-02-16 15:21:00,29.0,17.0,30.23,NNW,345,4.0,9.0,61,0.00,,,0.00,,2013-02-16 15:21:00,
2013-02-16 15:32:00,29.0,16.0,30.23,WNW,296,4.0,10.0,58,0.00,,,0.00,,2013-02-16 15:32:00,
2013-02-16 15:42:00,29.0,16.0,30.23,WNW,296,4.0,10.0,58,0.00,,,0.00,,2013-02-16 15:42:00,
2013-02-16 15:51:00,30.0,16.0,30.23,NNW,331,4.0,10.0,56,0.00,,,0.00,,2013-02-16 15:51:00,
2013-02-16 16:01:00,31.0,17.0,30.23,NNW,342,4.0,10.0,56,0.00,,,0.00,,2013-02-16 16:01:00,
2013-02-16 16:21:00,32.0,18.0,30.23,WNW,298,4.0,9.0,56,0.00,,,0.00,,2013-02-16 16:21:00,
2013-02-16 16:32:00,33.0,19.0,30.23,WNW,300,4.0,11.0,56,0.00,,,0.00,,2013-02-16 16:32:00,
2013-02-16 16:51:00,33.0,17.0,30.23,NNW,348,4.0,9.0,52,0.00,,,0.00,,2013-02-16 16:51:00,
2013-02-16 17:01:00,33.0,17.0,30.23,WNW,296,4.0,10.0,52,0.00,,,0.00,,2013-02-16 17:01:00,
2013-02-16 17:21:00,33.0,18.0,30.23,NW,312,6.0,11.0,53,0.00,,,0.00,,2013-02-16 17:21:00,
2013-02-16 17:32:00,35.0,18.0,30.22,NNW,342,5.0,9.0,50,0.00,,,0.00,,2013-02-16 17:32:00,
2013-02-16 17:52:00,36.0,19.0,30.22,NNW,343,4.0,10.0,49,0.00,,,0.00,,2013-02-16 17:52:00,
2013-02-16 18:02:00,37.0,19.0,30.22,NW,313,4.0,10.0,47,0.00,,,0.00,,2013-02-16 18:02:00,
2013-02-16 18:11:00,37.0,19.0,30.21,WNW,283,2.0,10.0,47,0.00,,,0.00,,2013-02-16 18:11:00,
2013-02-16 18:21:00,37.0,19.0,30.21,WNW,283,2.0,10.0,47,0.00,,,0.00,,2013-02-16 18:21:00,
2013-02-16 18:33:00,37.0,19.0,30.20,West,272,3.0,9.0,48,0.00,,,0.00,,2013-02-16 18:33:00,
2013-02-16 18:51:00,36.0,16.0,30.19,NW,321,4.0,8.0,44,0.00,,,0.00,,2013-02-16 18:51:00,
2013-02-16 19:02:00,37.0,16.0,30.19,NNW,338,4.0,10.0,42,0.00,,,0.00,,2013-02-16 19:02:00,
2013-02-16 19:11:00,37.0,16.0,30.19,NNW,338,4.0,10.0,42,0.00,,,0.00,,2013-02-16 19:11:00,
2013-02-16 19:21:00,38.0,16.0,30.18,NW,313,5.0,14.0,41,0.00,,,0.00,,2013-02-16 19:21:00,
2013-02-16 19:31:00,37.0,16.0,30.17,NNW,344,2.0,10.0,41,0.00,,,0.00,,2013-02-16 19:31:00,
2013-02-16 19:42:00,37.0,16.0,30.17,NNW,344,2.0,10.0,41,0.00,,,0.00,,2013-02-16 19:42:00,
2013-02-16 19:52:00,37.0,14.0,30.16,WSW,250,3.0,9.0,39,0.00,,,0.00,,2013-02-16 19:52:00,
2013-02-16 20:01:00,36.0,15.0,30.15,NW,325,3.0,11.0,41,0.00,,,0.00,,2013-02-16 20:01:00,
2013-02-16 20:11:00,36.0,15.0,30.15,NW,306,3.0,10.0,41,0.00,,,0.00,,2013-02-16 20:11:00,
2013-02-16 20:21:00,36.0,15.0,30.15,NW,306,3.0,10.0,41,0.00,,,0.00,,2013-02-16 20:21:00,
2013-02-16 20:32:00,36.0,14.0,30.14,West,276,2.0,11.0,40,0.00,,,0.00,,2013-02-16 20:32:00,
2013-02-16 20:42:00,36.0,14.0,30.14,West,276,2.0,11.0,40,0.00,,,0.00,,2013-02-16 20:42:00,
2013-02-16 20:52:00,37.0,14.0,30.14,West,277,3.0,11.0,39,0.00,,,0.00,,2013-02-16 20:52:00,
2013-02-16 21:02:00,38.0,15.0,30.14,WNW,284,6.0,12.0,38,0.00,,,0.00,,2013-02-16 21:02:00,
2013-02-16 21:11:00,38.0,15.0,30.14,WNW,284,6.0,12.0,38,0.00,,,0.00,,2013-02-16 21:11:00,
2013-02-16 21:21:00,38.0,15.0,30.14,West,271,5.0,10.0,39,0.00,,,0.00,,2013-02-16 21:21:00,
2013-02-16 21:32:00,38.0,14.0,30.13,WNW,298,2.0,9.0,37,0.00,,,0.00,,2013-02-16 21:32:00,
2013-02-16 21:41:00,38.0,14.0,30.13,WNW,298,2.0,9.0,37,0.00,,,0.00,,2013-02-16 21:41:00,
2013-02-16 21:52:00,38.0,14.0,30.13,WNW,298,4.0,11.0,37,0.00,,,0.00,,2013-02-16 21:52:00,
2013-02-16 22:01:00,37.0,13.0,30.13,NW,325,3.0,9.0,37,0.00,,,0.00,,2013-02-16 22:01:00,
2013-02-16 22:11:00,37.0,13.0,30.13,NW,325,3.0,9.0,37,0.00,,,0.00,,2013-02-16 22:11:00,
2013-02-16 22:21:00,37.0,14.0,30.13,West,260,3.0,9.0,38,0.00,,,0.00,,2013-02-16 22:21:00,
2013-02-16 22:32:00,37.0,13.0,30.13,NW,305,1.0,9.0,37,0.00,,,0.00,,2013-02-16 22:32:00,
2013-02-16 22:42:00,37.0,13.0,30.13,NW,305,1.0,9.0,37,0.00,,,0.00,,2013-02-16 22:42:00,
2013-02-16 22:51:00,37.0,13.0,30.13,NW,317,5.0,11.0,37,0.00,,,0.00,,2013-02-16 22:51:00,
2013-02-16 23:02:00,36.0,12.0,30.13,West,265,1.0,8.0,37,0.00,,,0.00,,2013-02-16 23:02:00,
2013-02-16 23:11:00,35.0,11.0,30.13,WNW,297,5.0,9.0,37,0.00,,,0.00,,2013-02-16 23:11:00,
2013-02-16 23:21:00,35.0,11.0,30.13,WNW,297,5.0,9.0,37,0.00,,,0.00,,2013-02-16 23:21:00,
2013-02-16 23:31:00,34.0,12.0,30.13,WNW,290,1.0,6.0,39,0.00,,,0.00,,2013-02-16 23:31:00,
2013-02-16 23:42:00,34.0,12.0,30.13,WNW,290,1.0,6.0,39,0.00,,,0.00,,2013-02-16 23:42:00,
2013-02-16 23:52:00,34.0,12.0,30.13,WNW,296,4.0,8.0,40,0.00,,,0.00,,2013-02-16 23:52:00,